Temp
-7 -7 -7 -7 -7 -7 -7 -6 -7 -7 -7 -7 -7 -7 -7 -8 -8 -8 -8 -8 -8 -8 -8 -8 -8 -8 -8 -8 -8 -8 -8 -8 -8 -8 -8 -8 -8 -8 -8 -8 -8 -8
-7 -7 -7 -7 -7 -7 -7 -7 -7 -7 -7 -7 -8 -8 -8 -7 -8 -8 -8 -8 -8 -8 -8 -8 -8 -8 -8 -8 -8 -8 -8 -8 -8 -8 -8 -8 -8 -8 -8 -8 -8 -8
-7 -7 -7 -7 -7 -7 -7 -7 -7 -7 -7 -7 -8 -8 -8 -8 -8 -8 -8 -8 -8 -8 -8 -8 -8 -7 -7 -8 -8 -8 -8 -8 -8 -8 -8 -8 -8 -8 -8 -8 -8 -8
-7 -7 -6 -7 -7 -7 -7 -7 -7 -7 -7 -7 -7 -8 -8 -8 -8 -8 -8 -8 -8 -8 -8 -8 -7 -7 -7 -8 -8 -8 -8 -8 -8 -8 -8 -8 -8 -8 -8 -8 -8 -8
-7 -7 -6 -6 -7 -7 -7 -7 -7 -7 -7 -7 -7 -7 -8 -8 -7 -8 -8 -8 -8 -8 -8 -7 -7 -7 -7 -8 -8 -8 -8 -8 -8 -8 -8 -8 -8 -8 -8 -8 -8 -8
-7 -7 -6 -6 -6 -6 -7 -7 -7 -7 -7 -7 -7 -7 -7 -7 -7 -8 -7 -7 -8 -8 -8 -7 -7 -7 -7 -8 -8 -8 -8 -8 -8 -8 -8 -8 -8 -8 -8 -8 -8 -8
-7 -7 -6 -6 -6 -6 -7 -7 -7 -7 -7 -7 -7 -7 -8 -7 -7 -7 -7 -7 -7 -7 -7 -7 -7 -7 -7 -8 -8 -8 -8 -8 -8 -8 -8 -8 -8 -8 -8 -8 -8 -8
-7 -7 -6 -6 -6 -6 -6 -7 -7 -7 -7 -7 -7 -7 -7 -7 -7 -7 -7 -7 -7 -7 -7 -7 -7 -7 -7 -8 -8 -8 -8 -8 -7 -8 -8 -8 -8 -8 -8 -8 -8 -8
-7 -7 -7 -6 -6 -6 -6 -7 -7 -7 -7 -7 -7 -7 -7 -7 -7 -7 -7 -7 -7 -7 -7 -7 -7 -7 -7 -7 -8 -8 -8 -8 -7 -8 -8 -8 -8 -8 -8 -8 -8 -8
-7 -7 -7 -6 -6 -6 -6 -7 -7 -7 -7 -7 -7 -7 -7 -7 -7 -7 -7 -7 -7 -7 -7 -7 -7 -7 -7 -7 -8 -8 -8 -8 -8 -8 -8 -8 -8 -8 -8 -8 -8 -8
-7 -7 -6 -6 -6 -6 -6 -6 -7 -7 -7 -7 -7 -7 -7 -7 -7 -7 -7 -7 -7 -7 -7 -7 -8 -8 -8 -8 -8 -8 -8 -8 -8 -8 -8 -8 -8 -8 -8 -8 -8 -8
-7 -6 -6 -6 -6 -6 -6 -6 -6 -7 -7 -7 -7 -7 -7 -7 -7 -7 -7 -7 -7 -7 -7 -7 -8 -8 -7 -7 -8 -8 -8 -8 -8 -8 -8 -8 -8 -8 -8 -8 -8 -8
-7 -6 -6 -6 -6 -6 -6 -6 -6 -7 -7 -7 -7 -7 -7 -7 -7 -7 -7 -7 -7 -7 -7 -7 -8 -8 -8 -7 -8 -8 -8 -8 -8 -8 -8 -8 -8 -8 -8 -8 -8 -8
-7 -6 -6 -6 -6 -6 -6 -6 -7 -7 -7 -7 -7 -7 -7 -7 -7 -7 -7 -7 -7 -7 -7 -7 -8 -8 -8 -8 -8 -8 -8 -8 -8 -8 -8 -8 -8 -8 -8 -8 -8 -8
-7 -7 -6 -6 -7 -7 -7 -7 -7 -7 -7 -7 -7 -7 -7 -6 -7 -7 -7 -7 -7 -7 -7 -7 -7 -7 -7 -8 -8 -8 -8 -8 -8 -8 -8 -8 -8 -8 -8 -8 -8 -8
-7 -7 -7 -7 -7 -7 -6 -6 -6 -7 -7 -7 -7 -7 -7 -7 -7 -7 -7 -7 -7 -7 -7 -7 -7 -7 -7 -8 -8 -8 -8 -8 -8 -8 -8 -8 -8 -8 -8 -8 -8 -8
-7 -7 -7 -7 -7 -7 -6 -6 -6 -7 -7 -7 -7 -7 -7 -7 -7 -7 -7 -7 -7 -7 -7 -7 -7 -7 -7 -8 -8 -8 -8 -8 -8 -8 -8 -8 -8 -8 -8 -8 -8 -8
-7 -7 -7 -7 -7 -7 -6 -6 -6 -7 -7 -7 -7 -7 -7 -7 -7 -7 -7 -7 -7 -7 -7 -7 -7 -7 -7 -7 -7 -7 -7 -8 -8 -8 -8 -8 -8 -8 -8 -8 -8 -8
-7 -7 -7 -7 -7 -7 -7 -6 -7 -7 -7 -7 -7 -7 -7 -7 -7 -7 -7 -7 -7 -7 -7 -7 -7 -7 -7 -7 -7 -8 -8 -7 -7 -7 -8 -8 -8 -8 -8 -8 -8 -8
-7 -7 -7 -7 -7 -7 -7 -7 -7 -8 -8 -7 -8 -8 -8 -8 -8 -8 -8 -8 -7 -7 -7 -7 -7 -7 -7 -7 -7 -7 -7 -7 -7 -7 -8 -8 -8 -8 -8 -8 -8 -8
-7 -7 -7 -7 -8 -8 -8 -8 -8 -8 -8 -8 -8 -8 -8 -8 -8 -8 -8 -8 -8 -7 -7 -7 -7 -7 -7 -7 -7 -7 -7 -7 -7 -7 -7 -7 -7 -7 -7 -8 -8 -8
-8 -8 -8 -8 -8 -8 -8 -8 -8 -8 -8 -8 -8 -8 -8 -8 -8 -8 -8 -8 -8 -8 -7 -7 -7 -7 -7 -7 -8 -7 -7 -7 -7 -7 -7 -7 -7 -7 -7 -7 -8 -7
-8 -8 -8 -8 -8 -8 -8 -8 -8 -8 -8 -8 -8 -8 -8 -8 -8 -8 -8 -8 -8 -8 -8 -8 -8 -8 -7 -8 -8 -8 -8 -8 -7 -7 -7 -7 -7 -7 -7 -7 -7 -7
-8 -8 -8 -9 -9 -8 -8 -8 -8 -8 -8 -8 -8 -8 -8 -8 -8 -8 -8 -8 -8 -8 -8 -8 -8 -8 -8 -8 -8 -8 -8 -8 -8 -7 -7 -7 -7 -7 -7 -7 -7 -7
-9 -9 -9 -9 -8 -8 -8 -8 -8 -9 -8 -8 -8 -8 -7 -7 -7 -8 -8 -8 -8 -8 -8 -8 -7 -7 -7 -8 -8 -8 -8 -8 -8 -7 -7 -7 -7 -7 -7 -7 -7 -7
-9 -9 -8 -8 -8 -8 -8 -8 -9 -9 -8 -8 -8 -8 -8 -7 -7 -8 -8 -8 -7 -8 -8 -8 -8 -8 -7 -7 -7 -7 -7 -7 -7 -7 -7 -7 -7 -7 -7 -7 -7 -7
Height
5870 5871 5872 5873 5873 5874 5876 5879 5881 5882 5883 5884 5886 5887 5888 5889 5891 5893 5895 5896 5898 5900 5902 5904 5906 5908 5909 5911 5913 5914 5916 5918 5919 5920 5921 5922 5922 5923 5924 5925 5925 5927
5868 5870 5871 5871 5872 5873 5874 5876 5878 5880 5881 5882 5884 5886 5887 5888 5889 5891 5893 5895 5897 5898 5900 5902 5904 5906 5908 5910 5911 5913 5915 5916 5918 5919 5920 5921 5921 5922 5923 5924 5925 5926
5866 5868 5869 5869 5870 5870 5871 5873 5875 5878 5880 5881 5883 5884 5886 5887 5887 5889 5891 5893 5895 5897 5899 5901 5902 5904 5906 5908 5910 5911 5913 5915 5917 5918 5919 5920 5921 5921 5922 5923 5924 5925
5864 5865 5866 5867 5868 5868 5869 5871 5873 5876 5877 5879 5881 5882 5883 5884 5885 5887 5889 5891 5893 5895 5897 5899 5901 5902 5904 5906 5908 5909 5911 5913 5915 5916 5918 5919 5920 5921 5921 5922 5923 5924
5862 5863 5864 5865 5866 5867 5867 5869 5871 5873 5874 5876 5879 5880 5880 5882 5883 5885 5887 5889 5892 5894 5896 5898 5899 5901 5902 5904 5906 5908 5910 5911 5913 5915 5917 5918 5919 5920 5921 5921 5922 5923
5859 5861 5862 5863 5864 5865 5866 5867 5868 5870 5872 5874 5876 5877 5878 5879 5881 5883 5885 5888 5890 5893 5895 5896 5898 5899 5901 5902 5904 5906 5908 5910 5911 5913 5915 5916 5918 5919 5920 5921 5922 5923
5857 5859 5860 5861 5863 5864 5864 5865 5866 5869 5871 5873 5875 5875 5876 5877 5880 5882 5884 5886 5889 5891 5893 5894 5896 5898 5899 5900 5902 5904 5906 5908 5910 5912 5913 5915 5916 5917 5918 5920 5921 5922
5855 5856 5858 5859 5861 5862 5862 5863 5865 5867 5869 5871 5873 5873 5874 5876 5879 5881 5883 5885 5887 5889 5890 5892 5894 5896 5897 5899 5900 5902 5904 5906 5908 5910 5912 5913 5914 5916 5917 5918 5919 5921
5853 5855 5856 5858 5859 5859 5860 5861 5863 5865 5867 5869 5871 5872 5873 5875 5877 5879 5881 5883 5885 5887 5889 5891 5892 5894 5895 5897 5899 5900 5902 5904 5906 5908 5910 5911 5913 5914 5915 5916 5918 5919
5852 5854 5855 5856 5857 5858 5859 5860 5861 5863 5864 5866 5868 5870 5871 5873 5875 5877 5879 5881 5883 5885 5887 5889 5891 5892 5894 5895 5897 5898 5900 5902 5904 5906 5908 5910 5911 5912 5913 5914 5916 5917
5851 5853 5854 5855 5856 5857 5857 5858 5860 5862 5863 5864 5866 5868 5869 5871 5873 5875 5877 5879 5880 5882 5884 5886 5888 5890 5891 5893 5895 5897 5899 5900 5902 5904 5906 5908 5909 5910 5911 5912 5914 5915
5849 5851 5853 5854 5854 5855 5856 5857 5859 5861 5862 5863 5865 5867 5868 5869 5871 5873 5875 5876 5878 5880 5882 5884 5886 5887 5889 5891 5893 5895 5897 5899 5900 5902 5904 5905 5907 5908 5909 5910 5911 5912
5848 5849 5850 5851 5852 5853 5854 5856 5858 5859 5861 5862 5864 5865 5866 5868 5870 5871 5872 5874 5876 5877 5879 5881 5883 5885 5887 5889 5891 5893 5895 5897 5899 5900 5902 5903 5904 5906 5907 5908 5909 5910
5846 5847 5848 5849 5850 5851 5853 5855 5856 5858 5859 5861 5863 5864 5866 5867 5868 5869 5871 5872 5874 5876 5877 5879 5881 5883 5885 5887 5889 5891 5893 5895 5897 5898 5900 5901 5902 5903 5904 5905 5907 5908
5844 5845 5847 5848 5849 5851 5852 5853 5855 5856 5858 5860 5862 5863 5865 5866 5867 5868 5870 5871 5872 5874 5875 5877 5879 5881 5883 5885 5887 5889 5891 5893 5894 5896 5897 5898 5899 5900 5901 5902 5904 5905
5844 5845 5846 5847 5848 5850 5851 5851 5853 5855 5857 5859 5861 5862 5863 5864 5865 5866 5867 5869 5870 5872 5873 5875 5877 5879 5881 5883 5884 5886 5888 5890 5891 5893 5894 5895 5896 5897 5898 5899 5900 5902
5844 5844 5845 5846 5847 5849 5850 5851 5851 5853 5855 5856 5858 5860 5860 5861 5863 5864 5865 5866 5868 5869 5871 5872 5874 5876 5878 5880 5882 5883 5885 5887 5888 5889 5891 5892 5893 5894 5895 5896 5897 5898
5842 5843 5844 5845 5845 5847 5849 5850 5850 5851 5852 5854 5856 5858 5858 5859 5860 5861 5862 5864 5865 5867 5869 5870 5872 5874 5876 5877 5879 5880 5882 5884 5885 5886 5888 5889 5890 5891 5892 5893 5894 5895
5840 5842 5843 5844 5845 5847 5848 5849 5849 5849 5850 5852 5854 5855 5856 5856 5857 5859 5860 5862 5864 5865 5867 5868 5870 5871 5873 5875 5876 5878 5879 5881 5882 5883 5885 5886 5888 5888 5889 5890 5891 5892
5837 5839 5841 5843 5845 5846 5847 5848 5848 5849 5849 5850 5852 5853 5855 5855 5856 5857 5858 5860 5862 5863 5865 5866 5867 5869 5870 5872 5873 5874 5876 5877 5879 5880 5882 5883 5884 5885 5886 5887 5888 5889
5835 5836 5838 5840 5842 5843 5844 5845 5847 5848 5848 5847 5848 5850 5852 5854 5855 5857 5858 5859 5861 5862 5863 5864 5865 5867 5868 5869 5870 5871 5872 5874 5875 5877 5879 5880 5882 5882 5883 5884 5886 5887
5833 5835 5837 5838 5840 5841 5842 5842 5843 5846 5847 5847 5847 5849 5851 5853 5854 5856 5858 5859 5860 5861 5862 5864 5865 5866 5866 5867 5868 5869 5870 5871 5873 5875 5876 5877 5878 5880 5881 5882 5883 5884
5833 5834 5835 5836 5838 5840 5841 5840 5841 5843 5845 5847 5848 5849 5850 5851 5853 5855 5856 5857 5858 5859 5860 5862 5863 5865 5866 5867 5868 5868 5869 5869 5870 5871 5873 5874 5875 5876 5877 5878 5879 5880
5835 5834 5834 5835 5837 5839 5840 5840 5839 5841 5843 5845 5847 5848 5848 5849 5851 5852 5854 5856 5856 5857 5859 5860 5861 5862 5864 5865 5865 5866 5867 5867 5868 5869 5871 5872 5872 5873 5874 5875 5875 5876
5836 5835 5834 5835 5835 5836 5838 5838 5838 5839 5840 5842 5844 5846 5847 5848 5849 5850 5852 5853 5854 5855 5856 5858 5858 5860 5861 5862 5863 5863 5864 5865 5865 5867 5869 5870 5871 5871 5871 5872 5872 5873
5833 5834 5833 5832 5832 5833 5834 5836 5837 5838 5838 5839 5841 5842 5844 5846 5847 5848 5849 5850 5851 5852 5853 5855 5856 5856 5858 5859 5860 5860 5861 5862 5862 5864 5866 5867 5868 5868 5868 5869 5869 5870
Wind_Speed
22 22 21 21 20 20 21 21 21 23 25 24 23 22 23 24 26 26 25 24 23 23 24 24 24 24 24 24 24 23 21 21 21 20 20 19 18 19 19 19 18 17
22 22 21 20 20 20 20 21 23 25 24 23 23 23 23 24 25 26 26 25 24 23 23 24 24 24 25 25 25 25 24 22 21 21 20 19 19 19 19 19 19 18
22 21 19 19 20 20 21 21 21 22 22 22 24 24 23 22 23 24 24 24 24 23 23 24 24 23 24 25 27 27 25 24 22 21 21 20 20 20 19 19 19 19
22 20 18 18 19 19 20 20 19 20 21 22 24 24 22 21 21 22 23 23 23 23 23 24 22 21 22 25 27 28 27 25 23 22 21 20 20 19 19 20 20 20
23 21 18 18 18 18 19 20 19 20 21 22 24 23 20 20 21 22 22 22 21 22 23 24 22 20 20 23 26 28 28 26 24 22 21 20 20 19 19 20 20 21
22 19 18 17 18 18 19 19 20 21 22 22 23 21 20 19 19 20 20 19 20 21 24 24 23 20 19 21 25 28 28 27 25 22 21 21 20 20 19 19 20 21
21 18 17 16 17 18 18 19 20 20 21 22 21 19 19 18 17 19 19 19 19 21 23 24 23 21 19 20 24 27 28 27 25 23 22 22 21 20 19 20 21 21
21 18 17 17 17 17 18 19 19 19 20 21 20 18 18 18 17 19 19 18 18 19 21 22 22 21 20 19 22 26 27 27 25 23 22 22 22 21 20 20 21 21
20 20 18 17 17 18 17 18 19 19 20 21 19 18 19 19 18 19 18 17 17 18 19 20 20 20 19 20 22 24 26 26 25 24 23 23 22 21 21 21 21 21
20 20 19 18 17 17 16 17 18 19 20 22 20 18 19 19 18 18 18 16 16 16 17 18 19 20 20 20 22 24 25 26 25 24 24 23 23 22 21 21 21 21
18 18 17 18 17 17 17 18 18 19 20 21 20 18 18 18 17 19 19 17 16 16 17 18 19 20 21 21 22 23 24 25 24 24 24 24 23 22 22 22 21 21
15 15 16 17 17 17 17 18 19 19 19 20 19 19 21 20 19 20 20 18 17 17 17 18 20 21 22 23 23 23 23 23 23 24 24 24 23 22 22 22 21 22
14 14 15 15 15 16 16 17 18 17 18 20 19 18 21 21 19 19 20 19 18 18 18 19 21 22 22 23 23 22 22 23 23 24 23 23 23 23 23 23 23 23
14 14 14 14 14 15 16 17 17 16 18 20 18 16 19 20 19 19 20 20 19 19 19 20 21 22 22 22 21 21 21 22 23 23 22 22 23 23 24 24 24 24
13 14 15 14 14 15 16 16 16 17 18 19 18 18 19 19 19 19 20 20 19 19 19 20 20 21 21 20 20 21 21 21 21 21 22 22 23 23 24 24 24 23
13 14 14 13 14 15 16 16 16 17 18 18 18 19 20 19 19 20 20 21 20 20 19 20 20 21 21 21 21 21 21 21 21 21 22 23 23 23 23 23 24 24
14 15 14 14 15 15 16 16 15 16 18 18 18 18 19 19 19 20 21 21 21 20 20 20 22 22 22 21 21 21 21 22 21 22 23 23 23 23 23 24 24 25
16 16 15 15 15 16 16 16 15 16 18 18 17 17 17 18 18 20 21 21 21 20 20 21 22 23 22 21 21 21 22 22 21 22 23 23 23 23 23 23 24 25
16 16 17 17 17 17 17 17 16 15 17 17 17 17 17 17 18 19 19 20 20 20 20 21 21 22 22 22 22 22 22 22 22 22 23 23 23 23 23 23 24 25
18 18 18 17 17 16 16 17 17 15 16 17 16 16 17 17 17 18 19 20 21 21 21 22 22 23 23 23 23 24 24 23 23 23 23 23 23 24 24 24 25 26
20 21 20 17 17 16 16 17 19 18 18 19 18 17 18 18 17 18 19 20 21 22 22 22 23 23 23 24 25 25 25 24 24 24 24 24 24 24 25 25 26 26
16 20 20 19 18 18 19 19 19 19 19 20 19 18 18 18 19 19 20 21 21 22 22 22 23 24 24 25 25 25 25 25 24 24 24 24 24 24 25 26 27 27
11 13 17 20 21 21 22 21 19 19 20 20 19 19 19 19 19 20 21 21 22 22 23 23 23 24 25 24 24 25 25 25 25 25 25 25 25 25 26 26 26 27
8 9 11 17 22 24 25 23 21 21 21 22 21 20 20 19 19 20 20 21 22 23 24 24 25 25 25 25 25 26 27 26 26 26 25 25 26 26 26 26 26 27
6 7 9 12 16 21 25 26 24 23 24 25 25 24 23 22 21 21 21 22 23 24 24 25 26 26 26 25 26 27 27 27 27 26 25 25 26 27 28 28 27 28
4 6 9 10 10 12 17 21 23 25 27 28 28 27 26 25 24 24 24 25 25 25 26 26 27 27 26 26 27 27 27 27 27 26 26 26 27 28 29 29 29 29
Wind_Direction
233 225 226 229 228 231 233 231 228 223 219 218 220 220 220 221 223 223 224 226 227 229 231 230 230 228 223 220 222 223 219 218 217 214 214 212 210 212 215 215 214 212
227 222 226 229 229 233 234 233 230 224 219 217 219 223 224 221 222 224 226 226 226 228 229 228 229 229 224 220 220 222 221 220 220 217 216 215 214 215 215 217 218 215
223 221 225 226 228 232 233 234 234 227 223 221 219 221 225 224 222 225 227 227 226 226 225 224 225 227 225 221 220 220 220 220 220 220 218 218 218 217 216 218 220 219
222 222 224 225 229 233 231 233 236 230 226 226 222 219 222 224 224 225 227 228 227 225 223 219 221 225 226 224 220 219 219 220 220 220 220 219 220 220 218 218 221 222
223 221 223 226 229 231 233 235 233 224 221 224 223 220 220 222 223 224 226 228 227 224 221 219 222 228 230 227 223 219 219 220 220 220 221 222 223 223 221 221 223 225
220 219 221 226 227 227 231 232 225 217 218 223 222 219 218 219 220 223 225 226 225 223 221 222 227 232 234 230 226 222 220 220 221 221 222 225 226 226 226 225 225 228
217 218 222 227 228 226 226 227 222 217 221 224 222 219 218 218 219 221 221 220 220 221 222 223 228 234 235 231 226 223 222 222 221 221 223 226 228 229 229 229 229 230
213 217 222 225 228 228 226 226 224 220 221 221 220 219 215 214 218 219 216 216 218 219 220 222 227 233 234 229 224 222 222 223 222 221 223 226 228 229 231 232 232 232
214 218 220 223 226 227 225 225 224 223 221 220 220 215 211 213 219 218 215 215 218 220 220 223 228 233 233 227 223 221 221 223 224 224 225 226 229 231 233 234 235 235
212 215 219 222 224 223 222 222 223 223 221 221 221 215 212 216 218 216 216 217 219 222 223 224 229 232 231 225 222 220 220 222 223 224 226 228 230 232 234 236 237 238
207 209 214 218 221 220 218 217 218 218 219 219 219 217 216 219 218 216 216 217 221 225 226 226 228 230 228 224 223 221 221 222 223 224 227 229 230 232 235 238 239 240
208 209 211 214 217 216 214 215 214 214 219 219 216 215 214 215 217 216 215 217 221 225 227 227 228 229 227 224 222 222 222 223 224 225 227 229 230 232 235 238 241 241
210 209 209 210 213 209 209 214 212 213 220 218 215 214 211 211 215 213 214 217 220 224 227 228 227 228 226 224 223 224 225 225 226 227 227 228 231 233 235 239 242 243
209 207 208 208 207 204 207 212 212 215 218 214 215 216 213 216 219 213 214 218 219 221 226 227 226 225 223 223 224 226 227 227 227 229 229 229 232 235 238 240 242 243
207 203 205 205 206 205 207 212 212 212 214 213 216 217 216 219 220 215 216 219 219 221 226 228 225 222 220 221 223 226 228 228 228 230 230 231 232 235 238 241 242 242
213 206 204 207 210 208 208 212 211 209 212 216 215 214 216 218 218 217 219 220 222 223 225 226 222 217 217 219 220 223 225 225 228 230 231 232 233 234 236 239 240 240
215 212 210 210 209 208 210 213 211 210 213 214 213 214 219 221 218 218 222 224 225 226 223 221 217 214 215 217 220 224 226 226 228 232 234 235 234 234 236 237 239 239
215 212 212 210 207 208 211 211 212 215 215 213 216 222 226 224 220 220 224 226 226 224 220 216 213 212 216 220 223 227 229 229 230 233 237 238 237 238 238 238 239 240
218 213 209 208 209 212 215 212 211 216 218 216 218 224 226 224 220 219 220 221 220 217 213 210 210 213 218 223 226 228 231 233 234 235 237 239 239 240 240 240 240 242
226 223 218 212 212 217 222 222 218 216 220 223 220 221 222 220 217 214 213 212 211 210 209 209 211 215 220 224 227 229 232 234 236 237 238 238 240 241 241 242 241 241
231 230 227 218 213 216 220 225 225 221 219 221 218 216 218 216 213 213 213 212 212 212 214 216 217 219 221 224 226 230 232 234 236 237 238 238 239 241 242 244 243 243
241 235 230 221 216 218 218 221 229 231 227 224 220 218 219 218 215 215 216 218 219 221 223 224 225 225 226 226 228 232 235 236 237 238 239 240 239 240 241 244 245 246
267 254 239 228 222 223 222 222 228 236 236 234 230 226 226 225 223 222 222 222 223 225 227 228 230 231 231 231 233 235 238 240 240 239 240 241 241 241 242 244 246 248
266 268 253 238 231 230 231 228 227 233 238 239 238 234 231 229 228 228 228 228 228 229 229 230 231 232 232 233 233 235 237 241 244 244 243 244 246 246 246 246 247 248
244 255 260 250 238 234 234 232 227 230 237 240 240 238 235 232 230 230 231 232 233 233 232 233 234 234 235 235 237 239 240 243 247 248 248 249 250 251 251 249 248 249
263 264 271 272 266 253 243 238 233 233 237 240 242 242 241 239 237 234 233 234 235 235 235 235 236 236 237 238 240 243 245 246 249 250 249 249 249 251 253 254 253 253